This is the latest recevied weather packets stored in our database for station/object KK6LZB. If no packets are shown the sender has not sent any weather packets the latest 10 day(s).
| Time | Temp. | Humidity | Pressure | Rain* | Wind** | Luminosity | Snow |
|---|---|---|---|---|---|---|---|
| 1777650685 | 17.22° C | 83% | 1017.1 hPa | 0 mm | - | 106 W/m² | - |
| 1777650382 | 17.22° C | 82% | 1016.9 hPa | 0 mm | - | 111 W/m² | - |
| 1777650079 | 17.22° C | 82% | 1017 hPa | 0 mm | - | 102 W/m² | - |
| 1777649777 | 16.67° C | 83% | 1017 hPa | 0 mm | - | 90 W/m² | - |
| 1777649474 | 16.67° C | 84% | 1016.9 hPa | 0 mm | - | 87 W/m² | - |
| 1777649170 | 16.67° C | 84% | 1017.1 hPa | 0 mm | - | 81 W/m² | - |
| 1777648867 | 16.67° C | 85% | 1016.8 hPa | 0 mm | - | 76 W/m² | - |
| 1777648261 | 16.67° C | 86% | 1017 hPa | 0 mm | - | 71 W/m² | - |
| 1777647956 | 16.11° C | 87% | 1016.8 hPa | 0 mm | - | 64 W/m² | - |
| 1777647653 | 16.67° C | 86% | 1017 hPa | 0 mm | - | 61 W/m² | - |
| 1777647349 | 16.11° C | 86% | 1016.9 hPa | 0 mm | - | 57 W/m² | - |
| 1777647048 | 16.11° C | 86% | 1016.6 hPa | 0 mm | - | 56 W/m² | - |
| 1777646743 | 16.11° C | 86% | 1016.8 hPa | 0 mm | - | 52 W/m² | - |
| 1777646438 | 16.11° C | 87% | 1016.7 hPa | 0 mm | - | 48 W/m² | - |
| 1777646135 | 16.11° C | 87% | 1016.6 hPa | 0 mm | - | 43 W/m² | - |
| 1777645832 | 16.11° C | 87% | 1016.6 hPa | 0 mm | - | 41 W/m² | - |
| 1777645530 | 15.56° C | 88% | 1016.3 hPa | 0 mm | - | 41 W/m² | - |
| 1777645226 | 15.56° C | 88% | 1016.4 hPa | 0 mm | - | 35 W/m² | - |
| 1777644921 | 15.56° C | 89% | 1016.5 hPa | 0 mm | - | 31 W/m² | - |
| 1777644620 | 15.56° C | 88% | 1016.4 hPa | 0 mm | - | 31 W/m² | - |
| 1777644315 | 15.56° C | 89% | 1016.2 hPa | 0 mm | - | 28 W/m² | - |
| 1777644011 | 15.56° C | 89% | 1016.2 hPa | 0 mm | - | 27 W/m² | - |
| 1777643709 | 15.56° C | 89% | 1016.1 hPa | 0 mm | - | 23 W/m² | - |
| 1777643406 | 15.56° C | 89% | 1016 hPa | 0 mm | - | 23 W/m² | - |
| 1777643102 | 15° C | 88% | 1016 hPa | 0 mm | - | 19 W/m² | - |
* Rain latest hour (hover to see other rain measurements)
** Current wind speed in m/s (hover to see current wind gust speed)